homeenglish.ru alexa rank chart, homeenglish.ru alexa rank daily changes

homeenglish.ru alexa rank chart, homeenglish.ru alexa rank daily changes

homeenglish.ru
Actual rank:
51 470

RANK HISTORY

Date Rank Diff
2017/01/16 51 470 +38
2017/01/15 51 432 +521
2017/01/14 50 911 +529
2017/01/13 50 382 +172
2017/01/12 50 210 -156
2017/01/11 50 366 -447
2017/01/10 50 813 +984
2017/01/09 49 829 +222
2017/01/08 49 607 -573
2017/01/07 50 180 -410
2017/01/06 50 590 +758
2017/01/05 49 832 +755
2017/01/04 49 077 +12
2017/01/03 49 065 +689
2017/01/02 48 376 +1 089
2017/01/01 47 287 +730
2016/12/31 46 557 +1 338
2016/12/30 45 219 +1 044
2016/12/29 44 175 +1 429
2016/12/28 42 746 +151
2016/12/27 42 595 +295
2016/12/26 42 300 +998
2016/12/25 41 302 +355
2016/12/24 40 947 +155
2016/12/23 40 792 +91
2016/12/22 40 701 +37
2016/12/21 40 664 -478
2016/12/20 41 142 -500
2016/12/19 41 642 +189
2016/12/18 41 453 +267
2016/12/17 41 186 +83
2016/12/16 41 103 +193
2016/12/15 40 910 +642
2016/12/14 40 268 -152
2016/12/13 40 420 -309
2016/12/12 40 729 +758
2016/12/11 39 971 +743
2016/12/10 39 228 -909
2016/12/09 40 137 +123
2016/12/08 40 014 +51
2016/12/07 39 963 -101
2016/12/06 40 064 -253
2016/12/05 40 317 -214
2016/12/04 40 531 +502
2016/12/02 40 029 -150
2016/12/01 40 179 -446
2016/11/30 40 625 -176
2016/11/29 40 801 -419
2016/11/28 41 220 +173
2016/11/27 41 047 +87
2016/11/26 40 960 -464
2016/11/25 41 424 +529
2016/11/24 40 895 +200
2016/11/23 40 695 -740
2016/11/19 41 435 -339
2016/11/18 41 774 -141
2016/11/17 41 915

WIDGET FOR YOUR SITE

DOMAINS WITH THE NEAREST RANK

Domain Rank
tackk.com 51 465
asterios.tm 51 466
testin.cn 51 467
stm.info 51 468
gaodun.com 51 469
homeenglish.ru 51 470
gls.de 51 471
humankinetics.com 51 472
telugu8.com 51 473
pitchbook.com 51 474
fatherly.com 51 475

DOMAINS WITH THE NEAREST RANK BY TLD .ru

Domain Rank
consmed.ru 51 334
25sale.ru 51 353
vashdosug.ru 51 376
myjane.ru 51 441
ogo1.ru 51 455
homeenglish.ru 51 470
kykyryza.ru 51 488
38mama.ru 51 490
autochel.ru 51 529
imtw.ru 51 532
delovoigorod.ru 51 535